[[{"header":{"parameterUnit":"m.s-1","parameterCategory":1,"la1":30.2991,"la2":30.254,"lo1":-89.0895,"lo2":-89.0444,"dy":0.0017,"dx":0.0017,"nx":28,"ny":28,"refTime":"2025-03-23T09:00:00:Z","depth":0,"parameterNumber":2,"parameterNumberName":"U-component_of_WINDS"},"data":[0,0,0,0,0,0,0,0,0,0,0,0,0,0,0,0,0,0,0,0,0,0,0,0,0,0,0,0,0,0,0,0,0,0,0,0,0,0,0,0,0,0,0,0,0,0,0,0,0,0,0,0,0,0,0,0,0,0,-3.6855,-3.6855,0,-3.6915,-3.6916,-3.6916,-3.6915,-3.6914,-3.6913,-3.6912,-3.6972,-3.6974,-3.6977,0,0,0,0,0,0,0,0,0,0,0,0,0,-3.6738,-3.6741,-3.6855,-3.6856,-3.6856,-3.6915,-3.6916,-3.6916,-3.6915,-3.6914,-3.6913,-3.6912,-3.6971,-3.6974,-3.6977,0,0,0,0,0,0,0,0,0,0,0,0,0,-3.6793,-3.6741,-3.6855,-3.6863,-3.6864,-3.6915,-3.6916,-3.6917,-3.6915,-3.6914,-3.6912,-3.6911,-3.697,-3.6974,-3.6977,-3.7024,0,0,-3.6988,-3.699,0,0,0,0,0,0,0,0,-3.679,-3.6797,-3.6861,-3.6862,-3.6864,-3.6906,-3.6897,-3.6953,-3.6915,-3.6895,-3.6912,-3.6911,-3.6951,-3.6956,-3.697,-3.7027,-3.7029,-3.6988,-3.6991,-3.6992,-3.6993,0,0,0,0,0,0,0,-3.6786,-3.6794,-3.6878,-3.6862,-3.6863,-3.6863,-3.6869,-3.6907,-3.6929,-3.6897,-3.6897,-3.6904,-3.6952,-3.6967,-3.6971,-3.703,-3.6988,-3.6991,-3.6994,-3.6995,-3.7129,-3.713,0,0,0,0,0,0,-3.6781,-3.6791,-3.6877,-3.688,-3.6823,-3.6866,-3.6873,-3.6894,-3.6929,-3.6933,-3.6905,-3.6904,-3.6961,-3.6967,-3.6973,-3.703,-3.6992,-3.6995,-3.6997,-3.7127,-3.7129,-3.7131,0,0,0,0,0,0,-3.6778,-3.6788,-3.6874,-3.6836,-3.6847,-3.6869,-3.6892,-3.6895,-3.691,-3.6935,-3.6939,-3.6917,-3.696,-3.6968,-3.7012,-3.7032,-3.6997,-3.7,-3.7126,-3.7128,-3.713,-3.7144,0,0,0,0,0,0,-3.6775,-3.6787,-3.6805,-3.6836,-3.6849,-3.6911,-3.6894,-3.6898,-3.6917,-3.6916,-3.6947,-3.6951,-3.696,-3.7006,-3.7015,-3.7036,-3.7003,-3.7124,-3.7127,-3.7129,-3.7142,-3.7146,-3.715,0,0,0,0,0,-3.6771,-3.6806,-3.6806,-3.6816,-3.6871,-3.6912,-3.692,-3.693,-3.6918,-3.6936,-3.6953,-3.695,-3.7029,-3.7011,-3.7021,-3.7043,-3.7123,-3.7126,-3.7129,-3.714,-3.7145,-3.715,0,0,0,0,0,0,-3.6775,-3.681,-3.681,-3.6857,-3.6882,-3.6912,-3.6935,-3.6936,-3.6964,-3.6961,-3.6973,-3.698,-3.7023,-3.7038,-3.7017,-3.7091,-3.7074,-3.708,-3.7079,-3.7085,-3.7089,-3.7083,-3.7006,0,0,0,0,0,-3.6782,-3.6813,-3.6841,-3.688,-3.6892,-3.6912,-3.693,-3.6936,-3.6962,-3.6972,-3.6992,-3.7017,-3.7048,-3.7067,-3.7097,-3.7145,-3.7151,-3.7166,-3.717,-3.7173,-3.7177,-3.7204,-3.721,-3.7141,-3.7141,-3.7141,0,0,-3.6795,-3.6818,-3.6837,-3.6881,-3.6901,-3.6932,-3.692,-3.6954,-3.6977,-3.6977,-3.7019,-3.7035,-3.7063,-3.7109,-3.713,-3.7123,-3.7198,-3.7177,-3.718,-3.7182,-3.7208,-3.7214,-3.722,-3.7144,-3.7143,-3.7143,0,0,-3.6836,-3.6857,-3.6891,-3.6912,-3.6943,-3.6956,-3.6964,-3.6995,-3.7005,-3.7048,-3.7049,-3.7078,-3.713,-3.7151,-3.7168,-3.722,-3.7218,-3.7229,-3.725,-3.7276,-3.7282,-3.7287,-3.7304,-3.7311,-3.7233,-3.7233,-3.7233,0,-3.6848,-3.6896,-3.6908,-3.6942,-3.6962,-3.6965,-3.7,-3.702,-3.7059,-3.7072,-3.7064,-3.7131,-3.715,-3.7201,-3.7214,-3.7228,-3.7238,-3.7224,-3.728,-3.7285,-3.729,-3.7307,-3.7314,-3.7234,-3.7234,-3.7234,-3.7234,0,-3.6909,-3.6943,-3.6967,-3.7005,-3.7028,-3.7062,-3.708,-3.7102,-3.7107,-3.7121,-3.7165,-3.7189,-3.7224,-3.7237,-3.7242,-3.7289,-3.7284,-3.7278,-3.7261,-3.7297,-3.7313,-3.732,-3.7236,-3.7235,-3.7235,-3.7235,0,0,-3.6952,-3.6998,-3.7007,-3.7025,-3.706,-3.7086,-3.7121,-3.7156,-3.7174,-3.7202,-3.7231,-3.7277,-3.7273,-3.7293,-3.73,-3.7324,-3.7362,-3.7315,-3.7316,-3.7322,-3.7416,-3.7419,-3.7426,-3.7363,-3.7364,-3.7365,-3.7413,0,-3.6995,-3.7057,-3.7071,-3.7124,-3.7155,-3.716,-3.7191,-3.7216,-3.7231,-3.7259,-3.7276,-3.7308,-3.7299,-3.7312,-3.7335,-3.7353,-3.7381,-3.735,-3.7389,-3.7391,-3.738,-3.7435,-3.7438,-3.7482,-3.742,-3.7421,-3.7421,0,-3.7053,-3.7083,-3.714,-3.7172,-3.7186,-3.7213,-3.7247,-3.7274,-3.7304,-3.7313,-3.7337,-3.7342,-3.7379,-3.7363,-3.7414,-3.7393,-3.741,-3.7422,-3.7424,-3.7426,-3.7407,-3.7437,-3.7496,-3.7502,-3.7432,-3.7431,-3.743,0,-3.7077,-3.7132,-3.7173,-3.7188,-3.7228,-3.7247,-3.7264,-3.7292,-3.7313,-3.7343,-3.7357,-3.739,-3.7408,-3.7435,-3.745,-3.7436,-3.75,-3.7485,-3.7508,-3.7508,-3.7519,-3.7518,-3.758,-3.7533,-3.7533,-3.7533,-3.7533,0,-3.7123,-3.7157,-3.7184,-3.7209,-3.7248,-3.7264,-3.7302,-3.732,-3.7345,-3.7374,-3.7381,-3.7408,-3.7427,-3.7457,-3.7469,-3.751,-3.7518,-3.7526,-3.7529,-3.7525,-3.7524,-3.7535,-3.7532,-3.7535,-3.7534,-3.7534,-3.7534,0,-3.7155,-3.7175,-3.722,-3.7255,-3.7264,-3.7291,-3.7321,-3.7346,-3.7362,-3.7398,-3.7408,-3.7433,-3.7468,-3.7487,-3.7531,-3.7539,-3.7584,-3.7586,-3.7574,-3.7575,-3.7597,-3.7594,-3.7667,-3.7678,-3.7625,-3.7626,-3.7626,0,-3.7182,-3.7209,-3.7247,-3.7267,-3.7285,-3.7317,-3.7339,-3.7356,-3.7378,-3.7415,-3.7436,-3.7472,-3.7501,-3.7558,-3.758,-3.7614,-3.7616,-3.7639,-3.7621,-3.7616,-3.7615,-3.7613,-3.7615,-3.7642,-3.7642,-3.7642,-3.7643,0,-3.7228,-3.7237,-3.7268,-3.7303,-3.7329,-3.7357,-3.7385,-3.7401,-3.7423,-3.7448,-3.7484,-3.7507,-3.7554,-3.7589,-3.7626,-3.7644,-3.7647,-3.7649,-3.7656,-3.7651,-3.7643,-3.7647,-3.7582,-3.7647,-3.7646,-3.7646,-3.7646,-3.7646,-3.7258,-3.7283,-3.7313,-3.7348,-3.7371,-3.7397,-3.7422,-3.7442,-3.7473,-3.7512,-3.7521,-3.756,-3.759,-3.764,-3.7659,-3.769,-3.7685,-3.7695,-3.7698,-3.77,-3.77,-3.764,-3.7697,-3.7697,-3.7697,-3.7696,-3.7696,0,-3.7304,-3.7325,-3.7356,-3.7395,-3.7423,-3.7425,-3.7457,-3.7479,-3.7513,-3.7542,-3.7571,-3.7614,-3.7649,-3.7675,-3.7711,-3.7731,-3.7734,-3.774,-3.7738,-3.7742,-3.7703,-3.7693,-3.7737,-3.7737,-3.7737,-3.7737,-3.7737,-3.7737,-3.7331,-3.7372,-3.7385,-3.7438,-3.7458,-3.7497,-3.7514,-3.7539,-3.7561,-3.7609,-3.7639,-3.7656,-3.7683,-3.7722,-3.7754,-3.7761,-3.7774,-3.778,-3.7786,-3.7749,-3.7745,-3.774,-3.7731,-3.7783,-3.7783,-3.7823,-3.7823,-3.7824]},{"header":{"parameterUnit":"m.s-1","parameterCategory":1,"la1":30.2991,"la2":30.254,"lo1":-89.0895,"lo2":-89.0444,"dy":0.0017,"dx":0.0017,"nx":28,"ny":28,"refTime":"2025-03-23T09:00:00:Z","depth":0,"parameterNumber":3,"parameterNumberName":"V-component_of_WINDS"},"data":[0,0,0,0,0,0,0,0,0,0,0,0,0,0,0,0,0,0,0,0,0,0,0,0,0,0,0,0,0,0,0,0,0,0,0,0,0,0,0,0,0,0,0,0,0,0,0,0,0,0,0,0,0,0,0,0,0,0,5.4759,5.4759,0,5.4802,5.4802,5.4802,5.4821,5.4821,5.4821,5.4821,5.486,5.4861,5.4862,0,0,0,0,0,0,0,0,0,0,0,0,0,5.4693,5.4694,5.4759,5.4759,5.476,5.4801,5.4802,5.4803,5.4821,5.4821,5.4821,5.4821,5.486,5.4861,5.4862,0,0,0,0,0,0,0,0,0,0,0,0,0,5.4727,5.4694,5.4759,5.4774,5.4776,5.4801,5.4802,5.4803,5.4821,5.4821,5.4821,5.4821,5.4859,5.4861,5.4863,5.4875,0,0,5.4868,5.4868,0,0,0,0,0,0,0,0,5.4725,5.4729,5.4771,5.4773,5.4775,5.4806,5.4793,5.4827,5.4821,5.4804,5.4821,5.482,5.4842,5.4845,5.4853,5.4877,5.4878,5.4868,5.4869,5.487,5.487,0,0,0,0,0,0,0,5.4723,5.4728,5.4776,5.4772,5.4774,5.4779,5.4783,5.48,5.4823,5.4805,5.4807,5.4812,5.4843,5.4851,5.4854,5.4879,5.4868,5.4869,5.487,5.4871,5.4919,5.4919,0,0,0,0,0,0,5.4718,5.4725,5.4774,5.4777,5.4749,5.478,5.4785,5.4796,5.4822,5.4827,5.4812,5.4812,5.4849,5.4852,5.4856,5.4874,5.487,5.4871,5.4872,5.4919,5.4919,5.4919,0,0,0,0,0,0,5.4716,5.4722,5.4773,5.4752,5.4758,5.4781,5.4793,5.4797,5.4805,5.4828,5.4831,5.4816,5.4849,5.4853,5.4871,5.4876,5.4872,5.4873,5.4918,5.4919,5.4919,5.491,0,0,0,0,0,0,5.4714,5.4721,5.4726,5.4752,5.476,5.4787,5.4793,5.4798,5.4809,5.481,5.4833,5.4836,5.4849,5.4869,5.4873,5.4878,5.4875,5.4918,5.4918,5.4919,5.491,5.491,5.491,0,0,0,0,0,5.4712,5.472,5.4726,5.4732,5.4766,5.4788,5.4792,5.4807,5.4809,5.4814,5.4829,5.4836,5.4875,5.487,5.4875,5.4881,5.4918,5.4918,5.4919,5.491,5.491,5.491,0,0,0,0,0,0,5.4691,5.4723,5.4731,5.4747,5.4765,5.4791,5.4797,5.4806,5.4823,5.4823,5.484,5.4845,5.4863,5.4873,5.4868,5.4896,5.4897,5.4899,5.4888,5.4889,5.4889,5.4886,5.4876,0,0,0,0,0,5.4689,5.4705,5.4732,5.4744,5.4753,5.4774,5.4783,5.4795,5.4813,5.482,5.4836,5.4853,5.487,5.4879,5.4895,5.4912,5.4919,5.4919,5.4919,5.4919,5.492,5.4933,5.4934,5.4921,5.4921,5.4921,0,0,5.4684,5.4703,5.4712,5.474,5.4755,5.4772,5.4779,5.4795,5.4808,5.4822,5.4841,5.4854,5.4874,5.4892,5.4901,5.4901,5.4925,5.492,5.4919,5.4921,5.4934,5.4935,5.4936,5.4922,5.4922,5.4922,0,0,5.4683,5.4699,5.4712,5.4728,5.4752,5.4767,5.477,5.4796,5.4806,5.4826,5.4838,5.4853,5.488,5.4895,5.4906,5.4917,5.4924,5.4921,5.4922,5.4934,5.4935,5.4936,5.4942,5.4944,5.4923,5.4923,5.4923,0,5.4673,5.4698,5.4717,5.4734,5.4748,5.4764,5.4779,5.4793,5.482,5.4829,5.483,5.4868,5.4882,5.4906,5.491,5.4917,5.4923,5.4919,5.4934,5.4935,5.4936,5.4942,5.4944,5.4922,5.4922,5.4922,5.4922,0,5.4686,5.4704,5.4712,5.4742,5.4756,5.4771,5.4793,5.4805,5.4816,5.4831,5.4853,5.4872,5.4894,5.49,5.4909,5.4926,5.4927,5.493,5.4932,5.4937,5.4943,5.4945,5.4922,5.4922,5.4922,5.4922,0,0,5.467,5.4714,5.4716,5.4732,5.4762,5.4776,5.4793,5.4817,5.4828,5.4847,5.4863,5.4889,5.4894,5.4907,5.4918,5.4929,5.494,5.4932,5.4933,5.4935,5.4963,5.4961,5.4963,5.4946,5.4946,5.4947,5.4962,0,5.4675,5.4708,5.4728,5.4753,5.4771,5.479,5.4805,5.4826,5.4841,5.4859,5.4876,5.4894,5.4899,5.4907,5.4919,5.4936,5.4946,5.4935,5.4961,5.4962,5.4957,5.4966,5.4963,5.4976,5.4965,5.4965,5.4965,0,5.4683,5.4706,5.4733,5.4766,5.4774,5.4788,5.4814,5.483,5.4855,5.4865,5.4883,5.4895,5.4916,5.4916,5.4945,5.4937,5.495,5.496,5.4961,5.4965,5.4964,5.4971,5.4981,5.4984,5.4969,5.4968,5.4968,0,5.4671,5.4708,5.4731,5.4743,5.478,5.479,5.4806,5.4831,5.4845,5.4868,5.4878,5.4902,5.4915,5.4933,5.4952,5.495,5.4981,5.4982,5.4991,5.4991,5.4996,5.4996,5.501,5.5002,5.5002,5.5002,5.5002,0,5.4674,5.4691,5.4727,5.474,5.4761,5.4784,5.4804,5.4821,5.4844,5.4862,5.4879,5.4895,5.492,5.4939,5.4955,5.4978,5.4983,5.4993,5.4997,5.4992,5.4991,5.5001,5.5001,5.5003,5.5003,5.5003,5.5003,0,5.4663,5.4688,5.4715,5.475,5.4759,5.4773,5.4803,5.4818,5.4836,5.4859,5.4866,5.4893,5.4918,5.494,5.4971,5.4982,5.5007,5.5011,5.5,5.5002,5.5011,5.501,5.5032,5.5037,5.5025,5.5025,5.5025,0,5.4664,5.4678,5.4716,5.4731,5.4748,5.477,5.4786,5.4811,5.4827,5.4859,5.4871,5.4898,5.492,5.4959,5.4982,5.5008,5.5013,5.5019,5.5017,5.5013,5.5016,5.5015,5.5018,5.5019,5.5019,5.5019,5.5019,0,5.4663,5.4676,5.4699,5.4729,5.4749,5.4772,5.4796,5.4807,5.4836,5.4854,5.4882,5.4899,5.4935,5.4962,5.4991,5.5007,5.5019,5.502,5.5024,5.5019,5.5013,5.5019,5.5001,5.5019,5.5019,5.5019,5.5019,5.5019,5.4659,5.4674,5.4705,5.4732,5.4753,5.4777,5.4794,5.4816,5.484,5.4872,5.4885,5.4913,5.4941,5.4982,5.4999,5.5022,5.5024,5.5028,5.503,5.5031,5.5032,5.5009,5.5027,5.5027,5.5027,5.5027,5.5027,0,5.466,5.4682,5.4707,5.4743,5.4765,5.4777,5.4805,5.4822,5.4848,5.4874,5.4898,5.4931,5.4958,5.4985,5.5015,5.5028,5.5034,5.5035,5.5035,5.5039,5.5027,5.5022,5.503,5.503,5.503,5.503,5.503,5.503,5.4664,5.4691,5.4708,5.4748,5.4769,5.4799,5.4815,5.4837,5.4859,5.4896,5.492,5.4939,5.4966,5.4998,5.5025,5.5032,5.5043,5.5042,5.5051,5.504,5.5039,5.5038,5.5034,5.5044,5.5044,5.5061,5.5061,5.5061]}]]